Change the Weather History Date:

Wednesday, August 21, 2013

  Actual Average Record
Temperature  
Mean Temperature 76 °F 70 °F  
Max Temperature 81 °F 81 °F 98 °F (1959)
Min Temperature 71 °F 59 °F 40 °F (2004)
Degree Days  
Heating Degree Days 0 1  
Month to date heating degree days 15 8  
Since 1 June heating degree days 103 67  
Since 1 July heating degree days 34 16  
Cooling Degree Days 11 6  
Month to date cooling degree days 84 148  
Year to date cooling degree days 511 575  
Since 1 June cooling degree days 469 539  
Growing Degree Days 27 (Base 50)    
Moisture  
Dew Point 70 °F    
Average Humidity 82    
Maximum Humidity 93    
Minimum Humidity 64    
Precipitation  
Precipitation T in 0.09 in 2.28 in (2002)
Month to date precipitation 2.44 2.09  
Year to date precipitation 19.63 18.43  
Snow  
Snow 0.00 in 0.00 in 0.00 in ()
Month to date snowfall 0.0 0.0  
Since 1 June snowfall 0.0 0.0  
Since 1 July snowfall 0.0 0.0  
Snow Depth 0.00 in    
Sea Level Pressure  
Sea Level Pressure 29.92 in    
Wind  
Wind Speed 5 mph (SSE)    
Max Wind Speed 15 mph    
Max Gust Speed 20 mph    
Visibility 9 miles    
Events Rain , Thunderstorm    
T = Trace of Precipitation, MM = Missing Value Source: NWS Daily Summary

Daily Weather History Graph

Daily Weather History Graph

Search for Another Location

Airport or City:

Trip Planner

Search our weather history database for the weather conditions in past years. The results will help you decide how hot, cold, wet, or windy it might be!

Date:

Astronomy

Aug. 21, 2013 Rise Set
Actual Time 6:38 AM CDT 8:20 PM CDT
Civil Twilight 6:08 AM CDT 8:50 PM CDT
Nautical Twilight 5:31 AM CDT 9:27 PM CDT
Astronomical Twilight 4:51 AM CDT 10:07 PM CDT
Moon 8:25 PM CDT (8/21) 7:23 AM CDT (8/21)
Length of Visible Light 14h 42m
Length of Day
13h 41m
Waxing Gibbous, 99% of the Moon is Illuminated
Aug 21
Waxing Gibbous
Aug 28
Last Quarter
Sep 5
New
Sep 12
First Quarter
Sep 19
Full

Hourly Weather History & Observations

Time (CDT) Temp. Heat Index Dew Point Humidity Pressure Visibility Wind Dir Wind Speed Gust Speed Precip Events Conditions
12:56 AM 77.0 °F - 70.0 °F 79% 29.84 in 10.0 mi South 10.4 mph - N/A   Clear
1:56 AM 75.9 °F - 70.0 °F 82% 29.84 in 10.0 mi South 11.5 mph - N/A   Clear
2:56 AM 75.9 °F - 70.0 °F 82% 29.83 in 10.0 mi South 10.4 mph - N/A   Clear
3:56 AM 75.0 °F - 69.1 °F 82% 29.82 in 10.0 mi SSW 10.4 mph - N/A   Clear
4:56 AM 73.9 °F - 69.1 °F 85% 29.82 in 10.0 mi South 10.4 mph - N/A   Overcast
5:56 AM 75.0 °F - 68.0 °F 79% 29.84 in 10.0 mi West 3.5 mph - N/A   Overcast
6:56 AM 73.9 °F - 68.0 °F 82% 29.83 in 10.0 mi South 8.1 mph - N/A   Overcast
7:56 AM 75.0 °F - 68.0 °F 79% 29.86 in 10.0 mi South 10.4 mph - N/A   Mostly Cloudy
8:56 AM 73.9 °F - 68.0 °F 82% 29.88 in 10.0 mi Variable 4.6 mph - N/A   Overcast
9:56 AM 75.0 °F - 68.0 °F 79% 29.88 in 10.0 mi SW 4.6 mph - N/A   Overcast
10:56 AM 77.0 °F - 69.1 °F 76% 29.90 in 10.0 mi South 6.9 mph - N/A   Overcast
11:56 AM 79.0 °F - 70.0 °F 74% 29.91 in 10.0 mi Calm Calm - 0.00 in   Overcast
12:56 PM 80.1 °F 83.2 °F 70.0 °F 71% 29.89 in 10.0 mi North 3.5 mph - 0.00 in   Overcast
1:36 PM 78.8 °F - 71.6 °F 78% 29.96 in 10.0 mi West 4.6 mph - 0.00 in   Overcast
1:56 PM 79.0 °F - 72.0 °F 79% 29.94 in 10.0 mi Calm Calm - 0.00 in   Overcast
2:50 PM 80.6 °F 84.6 °F 71.6 °F 74% 29.96 in 10.0 mi Calm Calm - N/A Thunderstorm Thunderstorm
2:56 PM 80.1 °F 83.8 °F 72.0 °F 76% 29.94 in 10.0 mi Calm Calm - N/A Thunderstorm Thunderstorm
3:17 PM 80.6 °F 84.6 °F 71.6 °F 74% 29.98 in 10.0 mi North 5.8 mph - N/A   Overcast
3:56 PM 79.0 °F - 72.0 °F 79% 29.93 in 9.0 mi East 5.8 mph - 0.00 in Rain Light Rain
4:45 PM 77.0 °F - 71.6 °F 83% 29.97 in 8.0 mi NE 6.9 mph - 0.00 in Rain , Thunderstorm Light Thunderstorms and Rain
4:56 PM 77.0 °F - 72.0 °F 84% 29.96 in 9.0 mi East 5.8 mph - 0.00 in Rain , Thunderstorm Light Thunderstorms and Rain
5:14 PM 77.0 °F - 71.6 °F 83% 29.96 in 10.0 mi ESE 11.5 mph - 0.00 in Rain Light Rain
5:56 PM 75.9 °F - 71.1 °F 85% 29.94 in 8.0 mi NNE 8.1 mph - 0.00 in Rain Light Rain
6:09 PM 75.2 °F - 71.6 °F 89% 29.96 in 9.0 mi ESE 4.6 mph - 0.00 in Thunderstorm Thunderstorm
6:35 PM 75.2 °F - 71.6 °F 89% 30.00 in 7.0 mi West 8.1 mph - 0.00 in   Overcast
6:37 PM 75.2 °F - 71.6 °F 89% 30.00 in 7.0 mi West 8.1 mph - 0.00 in   Overcast
6:46 PM 75.2 °F - 71.6 °F 89% 29.99 in 7.0 mi North 3.5 mph - 0.00 in   Overcast
6:56 PM 75.0 °F - 72.0 °F 90% 29.97 in 6.0 mi Calm Calm - 0.00 in   Overcast
7:56 PM 73.9 °F - 71.1 °F 91% 29.93 in 7.0 mi East 11.5 mph - 0.00 in   Overcast
8:04 PM 75.2 °F - 71.6 °F 89% 29.93 in 7.0 mi ESE 11.5 mph - N/A   Mostly Cloudy
8:56 PM 75.0 °F - 70.0 °F 84% 29.96 in 10.0 mi Calm Calm - N/A   Overcast
9:56 PM 73.9 °F - 70.0 °F 87% 29.95 in 8.0 mi Calm Calm - N/A   Overcast
10:56 PM 73.0 °F - 70.0 °F 90% 29.96 in 7.0 mi East 6.9 mph - 0.00 in Rain Light Rain
11:56 PM 73.0 °F - 71.1 °F 93% 29.99 in 7.0 mi WNW 3.5 mph - 0.00 in   Overcast